Date String (YYYY-MM-DD hh:mm:ss) UTC,Instrument flags,Ambient pressure (hPa),Sample flow (lpm),Bypass flow (lpm),Sample temperature (°C),Ambient temperature (°C),ASC tube jacket temperature (°C),LED temperature (°C),Box temperature (°C),Sample RH (%),Span deviation,Mass concentration (μg/m³),Mass concentration (μg/m³),Mass concentration (μg/m³)
DateTimeUTC,F1_M11,P_M11,Q1_M11,Q2_M11,T1_M11,T2_M11,T3_M11,T4_M11,T5_M11,U1_M11,ZSPAN_M11,X0_M11,X2_M11,X1_M11
2022-02-18 15:00:00,,0827.0,5.01,0.00,22.4,21.8,00.0,31.3,24.2,06.8,0000.0,0005.56,0001.16,0000.82
2022-02-18 15:01:00,,0827.0,5.00,0.00,22.4,21.9,00.0,31.3,24.2,06.8,0000.0,0005.51,0001.16,0000.83
2022-02-18 15:02:00,,0827.0,5.00,0.00,22.4,21.9,00.0,31.3,24.2,06.9,0000.0,0004.43,0001.19,0000.83
2022-02-18 15:03:00,,0827.1,4.99,0.00,22.4,21.9,00.0,31.3,24.2,07.2,0000.0,0004.30,0001.25,0000.85
2022-02-18 15:04:00,,0827.1,5.00,0.00,22.5,21.9,00.0,31.3,24.2,07.1,0000.0,0004.47,0001.28,0000.86
2022-02-18 15:05:00,,0827.1,5.01,0.00,22.5,21.9,00.0,31.3,24.2,07.0,0000.0,0004.23,0001.25,0000.87
2022-02-18 15:06:00,,0827.1,4.99,0.00,22.5,21.9,00.0,31.3,24.3,06.9,0000.0,0004.06,0001.24,0000.89
2022-02-18 15:07:00,,0827.1,4.99,0.00,22.5,21.9,00.0,31.3,24.2,07.0,0000.0,0004.16,0001.27,0000.89
2022-02-18 15:08:00,,0827.1,5.00,0.00,22.5,21.9,00.0,31.3,24.2,07.1,0000.0,0005.44,0001.34,0000.91
2022-02-18 15:09:00,,0827.1,5.01,0.00,22.5,21.9,00.0,31.3,24.3,06.9,0000.0,0004.31,0001.40,0000.92
2022-02-18 15:10:00,,0827.1,5.00,0.00,22.5,21.9,00.0,31.4,24.2,06.9,0000.0,0004.51,0001.46,0000.94
2022-02-18 15:11:00,,0827.1,5.00,0.00,22.5,21.9,00.0,31.4,24.3,06.9,0000.0,0004.74,0001.53,0000.94
2022-02-18 15:12:00,,0827.2,5.01,0.00,22.5,21.9,00.0,31.4,24.3,06.8,0000.0,0004.82,0001.57,0000.96
2022-02-18 15:13:00,,0827.2,4.99,0.00,22.5,21.9,00.0,31.4,24.3,06.9,0000.0,0004.83,0001.57,0000.97
2022-02-18 15:14:00,,0827.7,4.99,0.00,22.5,21.9,00.0,31.4,24.3,06.9,0000.0,0004.83,0001.62,0000.98
2022-02-18 15:15:00,,0827.4,5.02,0.00,22.5,21.9,00.0,31.4,24.3,06.8,0000.0,0005.08,0001.64,0000.99
2022-02-18 15:16:00,,0827.2,4.99,0.00,22.5,21.9,00.0,31.4,24.3,06.8,0000.0,0005.22,0001.65,0000.99
2022-02-18 15:17:00,,0827.2,5.00,0.00,22.6,21.9,00.0,31.4,24.3,06.8,0000.0,0006.19,0001.66,0000.98
2022-02-18 15:18:00,,0827.3,5.00,0.00,22.6,21.9,00.0,31.4,24.3,06.8,0000.0,0006.24,0001.66,0000.98
2022-02-18 15:19:00,,0827.2,5.02,0.00,22.6,21.9,00.0,31.4,24.3,06.9,0000.0,0004.81,0001.60,0000.97
2022-02-18 15:20:00,,0827.3,4.99,0.00,22.6,22.0,00.0,31.5,24.4,07.3,0000.0,0005.08,0001.67,0000.99
2022-02-18 15:21:00,,0827.2,5.00,0.00,22.6,21.9,00.0,31.5,24.4,07.4,0000.0,0005.89,0001.76,0001.01
2022-02-18 15:22:00,,0827.2,5.01,0.00,22.6,22.0,00.0,31.5,24.4,07.3,0000.0,0005.99,0001.77,0001.03
2022-02-18 15:23:00,,0827.3,4.99,0.00,22.6,22.0,00.0,31.5,24.4,07.2,0000.0,0006.07,0001.80,0001.04
2022-02-18 15:24:00,,0827.3,5.00,0.00,22.6,22.0,00.0,31.5,24.4,07.2,0000.0,0006.13,0001.83,0001.05
2022-02-18 15:25:00,,0827.4,5.02,0.00,22.6,22.0,00.0,31.5,24.4,07.1,0000.0,0006.41,0001.85,0001.05
2022-02-18 15:26:00,,0827.4,4.99,0.00,22.6,22.0,00.0,31.5,24.4,07.0,0000.0,0006.17,0001.84,0001.06
2022-02-18 15:27:00,,0827.4,5.01,0.00,22.7,22.0,00.0,31.5,24.4,06.9,0000.0,0006.00,0001.84,0001.06
2022-02-18 15:28:00,,0827.4,4.99,0.00,22.7,22.0,00.0,31.5,24.5,07.1,0000.0,0005.48,0001.87,0001.07
2022-02-18 15:29:00,,0827.4,5.02,0.00,22.7,22.0,00.0,31.5,24.5,07.2,0000.0,0006.61,0001.94,0001.10
2022-02-18 15:30:00,,0827.5,5.00,0.00,22.7,22.0,00.0,31.6,24.5,07.4,0000.0,0006.87,0002.04,0001.12
2022-02-18 15:31:00,,0827.5,5.00,0.00,22.7,22.1,00.0,31.6,24.5,07.7,0000.0,0006.55,0002.00,0001.11
2022-02-18 15:32:00,,0827.5,5.00,0.00,22.7,22.1,00.0,31.6,24.5,08.3,0000.0,0006.00,0001.95,0001.11
2022-02-18 15:33:00,,0827.5,5.01,0.00,22.7,22.1,00.0,31.6,24.6,08.3,0000.0,0006.11,0002.02,0001.14
2022-02-18 15:34:00,,0827.5,5.00,0.00,22.7,22.1,00.0,31.6,24.6,08.1,0000.0,0006.57,0002.08,0001.16
2022-02-18 15:35:00,,0827.5,5.00,0.00,22.8,22.1,00.0,31.6,24.6,07.8,0000.0,0008.32,0002.25,0001.18
2022-02-18 15:36:00,,0827.6,5.01,0.00,22.8,22.1,00.0,31.6,24.6,07.6,0000.0,0008.66,0002.36,0001.21
2022-02-18 15:37:00,,0827.7,4.99,0.00,22.8,22.1,00.0,31.6,24.6,07.6,0000.0,0008.87,0002.43,0001.24
2022-02-18 15:38:00,,0827.7,5.00,0.00,22.8,22.1,00.0,31.6,24.6,08.1,0000.0,0009.10,0002.55,0001.29
2022-02-18 15:39:00,,0827.7,5.01,0.00,22.8,22.1,00.0,31.7,24.6,08.3,0000.0,0009.43,0002.73,0001.36
2022-02-18 15:40:00,,0827.7,4.99,0.00,22.8,22.1,00.0,31.7,24.6,08.4,0000.0,0009.83,0003.02,0001.45
2022-02-18 15:41:00,,0827.6,5.01,0.00,22.8,22.1,00.0,31.7,24.7,08.2,0000.0,0010.72,0003.31,0001.54
2022-02-18 15:42:00,,0827.7,4.99,0.00,22.8,22.1,00.0,31.7,24.7,07.7,0000.0,0011.23,0003.43,0001.61
2022-02-18 15:43:00,,0827.7,5.01,0.00,22.8,22.1,00.0,31.7,24.6,08.0,0000.0,0014.83,0003.72,0001.70
2022-02-18 15:44:00,,0827.7,4.99,0.00,22.8,22.2,00.0,31.7,24.6,08.6,0000.0,0020.86,0004.40,0001.86
2022-02-18 15:45:00,,0827.7,5.01,0.00,22.9,22.2,00.0,31.7,24.7,08.4,0000.0,0031.56,0005.34,0002.09
2022-02-18 15:46:00,,0827.7,4.99,0.00,22.9,22.2,00.0,31.7,24.7,08.3,0000.0,0036.71,0006.11,0002.25
2022-02-18 15:47:00,,0827.7,5.02,0.00,22.9,22.2,00.0,31.7,24.7,08.4,0000.0,0041.25,0006.79,0002.40
2022-02-18 15:48:00,,0827.8,4.99,0.00,22.9,22.2,00.0,31.7,24.7,08.9,0000.0,0051.21,0007.73,0002.64
2022-02-18 15:49:00,,0827.9,5.00,0.00,22.9,22.2,00.0,31.8,24.7,08.9,0000.0,0058.94,0008.51,0002.87
2022-02-18 15:50:00,,0827.7,5.00,0.00,22.9,22.2,00.0,31.8,24.7,08.9,0000.0,0064.76,0008.94,0003.08
2022-02-18 15:51:00,,0827.7,5.00,0.00,22.9,22.2,00.0,31.8,24.7,08.8,0000.0,0069.30,0009.37,0003.19
2022-02-18 15:52:00,,0827.7,5.00,0.00,22.9,22.2,00.0,31.8,24.7,08.7,0000.0,0071.89,0009.74,0003.27
2022-02-18 15:53:00,,0827.8,5.00,0.00,22.9,22.2,00.0,31.8,24.7,08.3,0000.0,0073.55,0009.94,0003.33
2022-02-18 15:54:00,,0827.8,4.99,0.00,22.9,22.2,00.0,31.8,24.8,08.3,0000.0,0071.90,0009.96,0003.37
2022-02-18 15:55:00,,0827.8,5.00,0.00,22.9,22.2,00.0,31.8,24.8,08.4,0000.0,0067.45,0009.47,0003.37
2022-02-18 15:56:00,,0827.9,5.01,0.00,22.9,22.2,00.0,31.8,24.8,08.7,0000.0,0057.09,0008.65,0003.34
2022-02-18 15:57:00,,0827.9,4.99,0.00,22.9,22.2,00.0,31.8,24.8,08.9,0000.0,0050.28,0007.95,0003.36
2022-02-18 15:58:00,,0827.8,5.01,0.00,23.0,22.3,00.0,31.8,24.8,08.6,0000.0,0045.68,0007.34,0003.39
2022-02-18 15:59:00,,0827.9,5.01,0.00,23.0,22.3,00.0,31.8,24.8,08.5,0000.0,0036.28,0006.46,0003.38
